Weather History for Hickory, NC

Change the Weather History Date:

Sunday, October 27, 2013

  Actual Average Record
Temperature  
Mean Temperature 52 °F -  
Max Temperature 68 °F 67 °F 83 °F (1963)
Min Temperature 39 °F 44 °F 24 °F (1962)
Degree Days  
Heating Degree Days 12    
Growing Degree Days 2 (Base 50)    
Moisture  
Dew Point 41 °F    
Average Humidity 64    
Maximum Humidity 89    
Minimum Humidity 42    
Precipitation  
Precipitation 0.00 in - - ()
Sea Level Pressure  
Sea Level Pressure 30.05 in    
Wind  
Wind Speed 3 mph (SSW)    
Max Wind Speed 9 mph    
Max Gust Speed -    
Visibility 10 miles    
Events      
Averages and records for this station are not official NWS values.
T = Trace of Precipitation, MM = Missing Value Source: NWS Daily Summary

Daily Weather History Graph

Daily Weather History Graph

Search for Another Location

Airport:

Trip Planner

Search our weather history database for the weather conditions in past years. The results will help you decide how hot, cold, wet, or windy it might be!

Date:

Astronomy

Oct. 27, 2013 Rise Set
Actual Time 7:43 AM EDT 6:35 PM EDT
Civil Twilight 7:16 AM EDT 7:01 PM EDT
Nautical Twilight 6:46 AM EDT 7:31 PM EDT
Astronomical Twilight 6:17 AM EDT 8:00 PM EDT
Moon 12:52 AM EDT (10/27) 2:31 PM EDT (10/27)
Length of Visible Light 11h 44m
Length of Day
10h 51m
Last Quarter, 44% of the Moon is Illuminated
Oct 27
Last Quarter
Nov 3
New
Nov 10
First Quarter
Nov 17
Full
Nov 25
Last Quarter

Hourly Weather History & Observations

Time (EDT) Temp. Windchill Dew Point Humidity Pressure Visibility Wind Dir Wind Speed Gust Speed Precip Events Conditions
12:53 AM 46.9 °F - 37.0 °F 68% 30.05 in 10.0 mi North 3.5 mph - N/A   Scattered Clouds
1:53 AM 46.9 °F - 37.9 °F 71% 30.05 in 10.0 mi Calm Calm - N/A   Mostly Cloudy
2:53 AM 46.0 °F 44.8 °F 37.9 °F 73% 30.04 in 10.0 mi South 3.5 mph - N/A   Overcast
3:53 AM 44.1 °F - 37.0 °F 76% 30.03 in 10.0 mi Calm Calm - N/A   Clear
4:53 AM 39.9 °F - 35.1 °F 83% 30.02 in 10.0 mi Calm Calm - N/A   Clear
5:53 AM 44.1 °F - 37.0 °F 76% 30.04 in 10.0 mi Calm Calm - N/A   Clear
6:53 AM 41.0 °F - 37.0 °F 86% 30.05 in 10.0 mi Calm Calm - N/A   Clear
7:53 AM 39.9 °F - 36.0 °F 86% 30.06 in 10.0 mi Calm Calm - N/A   Clear
8:53 AM 45.0 °F - 39.9 °F 82% 30.08 in 10.0 mi Calm Calm - N/A   Clear
9:53 AM 53.1 °F - 39.9 °F 61% 30.09 in 10.0 mi Calm Calm - N/A   Clear
10:53 AM 57.0 °F - 39.9 °F 53% 30.09 in 10.0 mi SSW 4.6 mph - N/A   Clear
11:53 AM 60.1 °F - 39.9 °F 47% 30.09 in 10.0 mi Calm Calm - N/A   Clear
12:53 PM 63.0 °F - 41.0 °F 45% 30.08 in 10.0 mi South 6.9 mph - N/A   Clear
1:53 PM 64.9 °F - 41.0 °F 42% 30.04 in 10.0 mi SSW 6.9 mph - N/A   Clear
2:53 PM 66.0 °F - 42.1 °F 42% 30.02 in 10.0 mi SSW 8.1 mph - N/A   Clear
3:53 PM 66.9 °F - 43.0 °F 42% 30.01 in 10.0 mi SSW 8.1 mph - N/A   Clear
4:53 PM 66.9 °F - 44.1 °F 44% 30.01 in 10.0 mi Variable 5.8 mph - N/A   Clear
5:53 PM 64.9 °F - 45.0 °F 48% 30.01 in 10.0 mi SSW 9.2 mph - N/A   Clear
6:53 PM 62.1 °F - 45.0 °F 53% 30.03 in 10.0 mi SSW 9.2 mph - N/A   Clear
7:53 PM 59.0 °F - 46.0 °F 62% 30.05 in 10.0 mi South 5.8 mph - N/A   Clear
8:53 PM 57.9 °F - 46.0 °F 65% 30.06 in 10.0 mi SSW 5.8 mph - N/A   Scattered Clouds
9:53 PM 55.9 °F - 46.0 °F 69% 30.06 in 10.0 mi South 3.5 mph - N/A   Clear
10:53 PM 51.1 °F - 46.0 °F 83% 30.08 in 10.0 mi Calm Calm - N/A   Clear
11:53 PM 51.1 °F - 48.0 °F 89% 30.09 in 10.0 mi NNE 3.5 mph - N/A   Partly Cloudy